Location: São Paulo
(23.5507°S, 46.6334°W)
Time: 17:51:57
(UTC-03:00)

A-11 Canister half - Visible Passes

Search period start: 15 February 2026 00:00
Search period end: 25 February 2026 00:00
Orbit: 1512 x 1687 km, 47.2° (Epoch: 15 February)

Date Brightness Start Highest point End Pass type
(mag) Time Alt. Az. Time Alt. Az. Time Alt. Az.
21 Feb 10.3 05:18:08 10° N 05:26:19 36° NE 05:34:27 10° ESE visible
22 Feb 10.3 04:55:23 10° N 05:03:20 33° NE 05:11:15 10° ESE visible
23 Feb 10.4 04:32:39 10° N 04:40:21 30° NE 04:48:00 10° ESE visible
24 Feb 10.4 04:09:56 10° N 04:17:22 27° NE 04:24:43 10° ESE visible
